This is the latest recevied weather packets stored in our database for station/object KF0TNT. If no packets are shown the sender has not sent any weather packets the latest 10 day(s).
| Time | Temp. | Humidity | Pressure | Rain* | Wind** | Luminosity | Snow |
|---|---|---|---|---|---|---|---|
| 1788147140 | 66° F | 49% | 770 mmHg | 0 in | - | 0 W/m² | - |
| 1788146835 | 66° F | 48% | 770.1 mmHg | 0 in | - | 0 W/m² | - |
| 1788146530 | 66° F | 47% | 769.9 mmHg | 0 in | - | 0 W/m² | - |
| 1788146230 | 66° F | 47% | 769.9 mmHg | 0 in | - | 0 W/m² | - |
| 1788145925 | 66° F | 47% | 769.7 mmHg | 0 in | - | 0 W/m² | - |
| 1788145624 | 66° F | 46% | 769.7 mmHg | 0 in | - | 0 W/m² | - |
| 1788145323 | 66° F | 47% | 769.9 mmHg | 0 in | - | 0 W/m² | - |
| 1788145021 | 65° F | 48% | 769.7 mmHg | 0 in | - | 0 W/m² | - |
| 1788144716 | 65° F | 51% | 769.6 mmHg | 0 in | - | 0 W/m² | - |
| 1788144413 | 65° F | 52% | 769.8 mmHg | 0 in | - | 0 W/m² | - |
| 1788144111 | 65° F | 53% | 769.8 mmHg | 0 in | - | 0 W/m² | - |
| 1788143810 | 64° F | 54% | 769.7 mmHg | 0 in | - | 0 W/m² | - |
| 1788143509 | 64° F | 59% | 769.7 mmHg | 0 in | - | 0 W/m² | - |
| 1788143205 | 64° F | 61% | 769.7 mmHg | 0 in | - | 0 W/m² | - |
| 1788142900 | 64° F | 60% | 769.5 mmHg | 0 in | - | 0 W/m² | - |
| 1788142599 | 64° F | 59% | 769.6 mmHg | 0 in | - | 0 W/m² | - |
| 1788142294 | 64° F | 59% | 769.4 mmHg | 0 in | - | 0 W/m² | - |
| 1788141990 | 64° F | 60% | 769.4 mmHg | 0 in | - | 0 W/m² | - |
| 1788141685 | 64° F | 60% | 769 mmHg | 0 in | - | 0 W/m² | - |
| 1788141381 | 64° F | 60% | 769 mmHg | 0 in | - | 0 W/m² | - |
| 1788141080 | 64° F | 60% | 768.7 mmHg | 0 in | - | 0 W/m² | - |
| 1788140775 | 64° F | 61% | 768.9 mmHg | 0 in | - | 0 W/m² | - |
| 1788140471 | 64° F | 61% | 768.9 mmHg | 0 in | - | 0 W/m² | - |
| 1788140167 | 64° F | 62% | 768.9 mmHg | 0 in | - | 1 W/m² | - |
| 1788139866 | 64° F | 61% | 769 mmHg | 0 in | - | 1 W/m² | - |
* Rain latest hour (hover to see other rain measurements)
** Current wind speed in m/s (hover to see current wind gust speed)